This is the latest recevied weather packets stored in our database for station/object KC0RKM-13. If no packets are shown the sender has not sent any weather packets the latest 10 day(s).
| Time | Temp. | Humidity | Pressure | Rain* | Wind** | Luminosity | Snow |
|---|---|---|---|---|---|---|---|
| 1787856011 | 28.33° C | 54% | 1019.8 hPa | 0 mm | - | - | - |
| 1787855404 | 28.33° C | 54% | 1019.8 hPa | 0 mm | - | - | - |
| 1787854805 | 28.33° C | 54% | 1019.8 hPa | 0 mm | - | - | - |
| 1787854203 | 28.33° C | 54% | 1019.8 hPa | 0 mm | - | - | - |
| 1787853604 | 28.33° C | 54% | 1019.8 hPa | 0 mm | - | - | - |
| 1787853004 | 28.33° C | 54% | 1019.8 hPa | 0 mm | - | - | - |
| 1787852403 | 28.33° C | 54% | 1019.8 hPa | 0 mm | - | - | - |
| 1787851803 | 28.33° C | 54% | 1019.8 hPa | 0 mm | - | - | - |
| 1787851203 | 28.33° C | 54% | 1019.8 hPa | 0 mm | - | - | - |
| 1787850604 | 28.33° C | 54% | 1019.8 hPa | 0 mm | - | - | - |
| 1787850004 | 28.33° C | 54% | 1019.8 hPa | 0 mm | - | - | - |
| 1787849403 | 28.33° C | 54% | 1019.8 hPa | 0 mm | - | - | - |
| 1787848803 | 28.33° C | 53% | 1019.9 hPa | 0 mm | - | - | - |
| 1787848203 | 28.33° C | 55% | 1019.9 hPa | 0 mm | - | - | - |
| 1787847603 | 28.33° C | 58% | 1019.9 hPa | 0 mm | - | - | - |
| 1787847004 | 27.22° C | 59% | 1019.7 hPa | 0 mm | - | - | - |
| 1787846404 | 26.67° C | 63% | 1020 hPa | 0 mm | - | - | - |
| 1787845803 | 26.67° C | 62% | 1020 hPa | 0 mm | - | - | - |
| 1787845203 | 26.11° C | 63% | 1019.9 hPa | 0 mm | - | - | - |
| 1787844604 | 26.11° C | 64% | 1019.7 hPa | 0 mm | - | - | - |
| 1787844004 | 26.11° C | 65% | 1019.8 hPa | 0 mm | - | - | - |
| 1787843403 | 25.56° C | 66% | 1019.7 hPa | 0 mm | - | - | - |
| 1787842803 | 26.11° C | 65% | 1019.7 hPa | 0 mm | - | - | - |
| 1787842204 | 25° C | 63% | 1019.8 hPa | 0 mm | - | - | - |
| 1787841603 | 24.44° C | 66% | 1020.1 hPa | 0 mm | - | - | - |
* Rain latest hour (hover to see other rain measurements)
** Current wind speed in m/s (hover to see current wind gust speed)